Amory, Mississippi
Current Conditions -  °F | °C
As of 3:55 AM on Sunday 23 Nov 2014 (Local Time) from KM40 Reporting Station
Overcast Overcast  
Wind Chill: 61°   Ceiling: 1400
Heat Index: 61°   Visibility: 10mi
Dew Point: 45°   Wind: 15mph
Humidity: 55%   Direction: 140°SE
Pressure: 29.87"   Gusts: 20mph
Location:  33.99°N, 88.49°W
Report Text: KM40 230955Z AUTO 14013G17KT 10SM OVC014 16/07 A2987 RMK AO2
Loading
Personal Weather Stations






























Interactive Weather Map New forecast layout! Learn more

10-Day Weather Forecast

Advertisements
Track Severe Weather on mobile